Tracking 31027 objects as of 19-Jul-2025
HD Live streaming from Space Station
objects crossing your sky now

COSMOS 1275 DEB

Track COSMOS 1275 DEB now!
10-day predictions


NORAD ID: 12740
Int'l Code: 1981-053CH
Perigee: 762.1 km
Apogee: 786.4 km
Inclination: 82.8 °
Period: 100.2 minutes
Semi major axis: 7145 km
RCS: 0.0069 m2 (small)
Launch date: June 4, 1981
Source: Commonwealth of Independent States (former USSR) (CIS)
Launch site: PLESETSK MISSILE AND SPACE COMPLEX (PKMTR)

Note: This is SATELLITE DEBRIS
Your satellite tracking list
LANDSAT 5
Track 1 satellite(s)




NASA's NSSDC Master Catalog

Two Line Element Set (TLE):
1 12740U 81053CH  25199.20348388  .00003189  00000-0  10602-2 0  9995
2 12740  82.8376 120.9495 0016985  74.7078  84.6479 14.37405966249279
Source of the keplerian elements: AFSPC